Weather History for Taylorville, IL

Change the Weather History Date:

Sunday, March 16, 2014

  Actual Average (KSPI) Record (KSPI)
Temperature  
Mean Temperature 30 °F 42 °F  
Max Temperature 35 °F 52 °F 82 °F (1945)
Min Temperature 23 °F 32 °F 6 °F (1900)
Degree Days  
Heating Degree Days 36 23  
Month to date heating degree days 413  
Since 1 July heating degree days 4684  
Cooling Degree Days 0 0  
Month to date cooling degree days 0  
Year to date cooling degree days 0  
Moisture  
Dew Point 18 °F    
Average Humidity 61    
Maximum Humidity 87    
Minimum Humidity 44    
Precipitation  
Precipitation 0.00 in 0.09 in 0.93 in (1942)
Month to date precipitation 1.30  
Year to date precipitation 4.93  
Snow  
Snow 0.00 in 0.10 in 2.90 in (1960)
Month to date snowfall 1.7  
Since 1 July snowfall 19.8  
Snow Depth -    
Sea Level Pressure  
Sea Level Pressure 30.10 in    
Wind  
Wind Speed 22 mph (NE)    
Max Wind Speed 31 mph    
Max Gust Speed 43 mph    
Visibility 10 miles    
Events      
T = Trace of Precipitation, MM = Missing Value Source: NWS Daily Summary

Daily Weather History Graph

Daily Weather History Graph

Search for Another Location

Airport:

Trip Planner

Search our weather history database for the weather conditions in past years. The results will help you decide how hot, cold, wet, or windy it might be!

Date:

Astronomy

Mar. 16, 2014 Rise Set
Actual Time 7:07 AM CDT 7:05 PM CDT
Civil Twilight 6:40 AM CDT 7:32 PM CDT
Nautical Twilight 6:09 AM CDT 8:03 PM CDT
Astronomical Twilight 5:37 AM CDT 8:35 PM CDT
Moon 7:22 PM CDT (3/16) 6:50 AM CDT (3/16)
Length of Visible Light 12h 51m
Length of Day
11h 58m
Full, 100% of the Moon is Illuminated
Mar 16
Full
Mar 16
Full
Mar 23
Last Quarter
Mar 30
New
Apr 7
First Quarter

Hourly Weather History & Observations

Time (CDT) Temp. Windchill Dew Point Humidity Pressure Visibility Wind Dir Wind Speed Gust Speed Precip Events Conditions
12:15 AM 35.6 °F 25.9 °F 30.2 °F 81% 30.05 in 10.0 mi ENE 16.1 mph 25.3 mph N/A   Clear
12:35 AM 33.8 °F 22.5 °F 30.2 °F 87% 30.05 in 10.0 mi NE 19.6 mph - N/A   Clear
1:15 AM 32.0 °F 19.2 °F 28.4 °F 87% 30.08 in 10.0 mi NE 23.0 mph 29.9 mph N/A   Scattered Clouds
1:35 AM 32.0 °F 19.8 °F 26.6 °F 80% 30.09 in 10.0 mi NE 20.7 mph 34.5 mph N/A   Scattered Clouds
1:55 AM 32.0 °F 19.8 °F 26.6 °F 80% 30.09 in 10.0 mi NE 20.7 mph 32.2 mph N/A   Scattered Clouds
2:15 AM 32.0 °F 19.2 °F 26.6 °F 80% 30.09 in 10.0 mi NE 23.0 mph 28.8 mph N/A   Clear
2:35 AM 32.0 °F 19.8 °F 26.6 °F 80% 30.09 in 10.0 mi NE 20.7 mph 26.5 mph N/A   Clear
2:55 AM 32.0 °F 19.5 °F 26.6 °F 80% 30.09 in 10.0 mi NE 21.9 mph 28.8 mph N/A   Clear
3:15 AM 32.0 °F 19.8 °F 26.6 °F 80% 30.08 in 10.0 mi NE 20.7 mph 35.7 mph N/A   Clear
3:35 AM 32.0 °F 19.5 °F 26.6 °F 80% 30.08 in 10.0 mi NE 21.9 mph 33.4 mph N/A   Clear
3:55 AM 32.0 °F 19.5 °F 26.6 °F 80% 30.08 in 10.0 mi NE 21.9 mph 29.9 mph N/A   Clear
4:15 AM 32.0 °F 19.8 °F 24.8 °F 75% 30.08 in 10.0 mi NE 20.7 mph 29.9 mph N/A   Clear
4:35 AM 32.0 °F 18.9 °F 24.8 °F 75% 30.07 in 10.0 mi NE 24.2 mph 32.2 mph N/A   Clear
4:55 AM 32.0 °F 18.6 °F 23.0 °F 69% 30.07 in 10.0 mi NE 25.3 mph 35.7 mph N/A   Clear
5:15 AM 32.0 °F 18.1 °F 21.2 °F 64% 30.06 in 10.0 mi NE 27.6 mph 40.3 mph N/A   Clear
5:35 AM 32.0 °F 17.9 °F 21.2 °F 64% 30.06 in 10.0 mi NE 28.8 mph 42.6 mph N/A   Clear
5:55 AM 32.0 °F 17.4 °F 21.2 °F 64% 30.07 in 10.0 mi NE 31.1 mph 39.1 mph N/A   Clear
6:15 AM 32.0 °F 18.9 °F 21.2 °F 64% 30.08 in 10.0 mi NE 24.2 mph 35.7 mph N/A   Clear
6:35 AM 32.0 °F 18.6 °F 19.4 °F 60% 30.08 in 10.0 mi NE 25.3 mph 36.8 mph N/A   Clear
6:55 AM 30.2 °F 15.9 °F 19.4 °F 64% 30.08 in 10.0 mi NE 26.5 mph 38.0 mph N/A   Clear
7:15 AM 30.2 °F 15.7 °F 19.4 °F 64% 30.08 in 10.0 mi NE 27.6 mph 36.8 mph N/A   Clear
7:35 AM 30.2 °F 15.7 °F 17.6 °F 60% 30.10 in 10.0 mi NE 27.6 mph 41.4 mph N/A   Clear
7:55 AM 30.2 °F 14.9 °F 17.6 °F 60% 30.11 in 10.0 mi NE 31.1 mph 38.0 mph N/A   Mostly Cloudy
8:15 AM 30.2 °F 16.8 °F 17.6 °F 60% 30.11 in 10.0 mi NE 23.0 mph 38.0 mph N/A   Overcast
8:35 AM 30.2 °F 16.5 °F 17.6 °F 60% 30.11 in 10.0 mi NE 24.2 mph 36.8 mph N/A   Mostly Cloudy
8:55 AM 30.2 °F 14.9 °F 17.6 °F 60% 30.13 in 10.0 mi NE 31.1 mph 38.0 mph N/A   Mostly Cloudy
9:15 AM 30.2 °F 15.2 °F 17.6 °F 60% 30.14 in 10.0 mi NE 29.9 mph 36.8 mph N/A   Overcast
9:35 AM 30.2 °F 15.2 °F 17.6 °F 60% 30.14 in 10.0 mi NE 29.9 mph 40.3 mph N/A   Overcast
9:55 AM 30.2 °F 15.4 °F 17.6 °F 60% 30.16 in 10.0 mi NE 28.8 mph 34.5 mph N/A   Overcast
10:15 AM 30.2 °F 15.4 °F 15.8 °F 55% 30.16 in 10.0 mi NE 28.8 mph 38.0 mph N/A   Overcast
10:35 AM 30.2 °F 16.8 °F 15.8 °F 55% 30.17 in 10.0 mi NE 23.0 mph 34.5 mph N/A   Overcast
10:55 AM 30.2 °F 16.2 °F 14.0 °F 51% 30.16 in 10.0 mi NE 25.3 mph 32.2 mph N/A   Overcast
11:15 AM 32.0 °F 19.2 °F 14.0 °F 48% 30.16 in 10.0 mi NE 23.0 mph 29.9 mph N/A   Overcast
11:35 AM 32.0 °F 19.5 °F 14.0 °F 48% 30.15 in 10.0 mi NE 21.9 mph 29.9 mph N/A   Overcast
11:55 AM 32.0 °F 19.2 °F 14.0 °F 48% 30.15 in 10.0 mi NE 23.0 mph 29.9 mph N/A   Mostly Cloudy
12:15 PM 32.0 °F 18.9 °F 14.0 °F 48% 30.15 in 10.0 mi NE 24.2 mph 32.2 mph N/A   Scattered Clouds
12:35 PM 32.0 °F 19.2 °F 14.0 °F 48% 30.15 in 10.0 mi NE 23.0 mph 29.9 mph N/A   Mostly Cloudy
12:55 PM 32.0 °F 19.5 °F 14.0 °F 48% 30.15 in 10.0 mi NNE 21.9 mph 29.9 mph N/A   Overcast
1:15 PM 32.0 °F 19.5 °F 14.0 °F 48% 30.14 in 10.0 mi NNE 21.9 mph 29.9 mph N/A   Overcast
1:35 PM 32.0 °F 18.9 °F 12.2 °F 44% 30.14 in 10.0 mi NNE 24.2 mph 29.9 mph N/A   Overcast
1:55 PM 32.0 °F 19.5 °F 15.8 °F 51% 30.13 in 10.0 mi NNE 21.9 mph 29.9 mph N/A   Overcast
2:15 PM 32.0 °F 19.2 °F 14.0 °F 48% 30.12 in 10.0 mi NNE 23.0 mph 31.1 mph N/A   Mostly Cloudy
2:35 PM 32.0 °F 18.6 °F 14.0 °F 48% 30.11 in 10.0 mi NNE 25.3 mph 33.4 mph N/A   Scattered Clouds
2:55 PM 32.0 °F 18.4 °F 12.2 °F 44% 30.11 in 10.0 mi NNE 26.5 mph 31.1 mph N/A   Clear
3:15 PM 32.0 °F 19.2 °F 14.0 °F 48% 30.11 in 10.0 mi NNE 23.0 mph 35.7 mph N/A   Clear
3:35 PM 32.0 °F 19.2 °F 12.2 °F 44% 30.11 in 10.0 mi NE 23.0 mph 31.1 mph N/A   Clear
3:55 PM 32.0 °F 19.8 °F 12.2 °F 44% 30.10 in 10.0 mi NE 20.7 mph 32.2 mph N/A   Clear
4:15 PM 30.2 °F 16.5 °F 12.2 °F 47% 30.10 in 10.0 mi NNE 24.2 mph 31.1 mph N/A   Clear
4:35 PM 30.2 °F 17.1 °F 14.0 °F 51% 30.10 in 10.0 mi NNE 21.9 mph 28.8 mph N/A   Clear
4:55 PM 30.2 °F 17.8 °F 14.0 °F 51% 30.09 in 10.0 mi NNE 19.6 mph 28.8 mph N/A   Clear
5:15 PM 30.2 °F 17.8 °F 14.0 °F 51% 30.08 in 10.0 mi NNE 19.6 mph 27.6 mph N/A   Clear
5:35 PM 30.2 °F 16.5 °F 14.0 °F 51% 30.08 in 10.0 mi NNE 24.2 mph 28.8 mph N/A   Clear
5:55 PM 30.2 °F 17.4 °F 14.0 °F 51% 30.09 in 10.0 mi NNE 20.7 mph 27.6 mph N/A   Scattered Clouds
6:15 PM 30.2 °F 17.1 °F 14.0 °F 51% 30.09 in 10.0 mi NE 21.9 mph 26.5 mph N/A   Scattered Clouds
6:35 PM 28.4 °F 15.8 °F 14.0 °F 55% 30.08 in 10.0 mi NNE 18.4 mph 23.0 mph N/A   Clear
6:55 PM 28.4 °F 17.5 °F 14.0 °F 55% 30.08 in 10.0 mi NNE 13.8 mph 27.6 mph N/A   Clear
7:15 PM 28.4 °F 15.1 °F 14.0 °F 55% 30.09 in 10.0 mi NE 20.7 mph 24.2 mph N/A   Clear
7:35 PM 28.4 °F 15.4 °F 14.0 °F 55% 30.09 in 10.0 mi NE 19.6 mph 26.5 mph N/A   Clear
7:55 PM 28.4 °F 15.4 °F 14.0 °F 55% 30.09 in 10.0 mi NNE 19.6 mph - N/A   Clear
8:15 PM 28.4 °F 16.2 °F 14.0 °F 55% 30.10 in 10.0 mi NNE 17.3 mph 20.7 mph N/A   Scattered Clouds
8:35 PM 28.4 °F 18.0 °F 14.0 °F 55% 30.10 in 10.0 mi NNE 12.7 mph 21.9 mph N/A   Clear
8:55 PM 28.4 °F 17.5 °F 14.0 °F 55% 30.11 in 10.0 mi NNE 13.8 mph 21.9 mph N/A   Clear
9:15 PM 28.4 °F 17.0 °F 14.0 °F 55% 30.11 in 10.0 mi NNE 15.0 mph - N/A   Clear
9:35 PM 26.6 °F 14.3 °F 14.0 °F 59% 30.10 in 10.0 mi NNE 16.1 mph 20.7 mph N/A   Clear
9:55 PM 26.6 °F 15.2 °F 14.0 °F 59% 30.11 in 10.0 mi NE 13.8 mph - N/A   Clear
10:15 PM 26.6 °F 16.8 °F 14.0 °F 59% 30.10 in 10.0 mi NE 10.4 mph - N/A   Clear
10:35 PM 26.6 °F 17.5 °F 17.6 °F 69% 30.10 in 10.0 mi NNE 9.2 mph - N/A   Clear
10:55 PM 26.6 °F 16.2 °F 17.6 °F 69% 30.09 in 10.0 mi NNE 11.5 mph 18.4 mph N/A   Clear
11:15 PM 24.8 °F 14.0 °F 19.4 °F 80% 30.08 in 10.0 mi NNE 11.5 mph - N/A   Clear
11:35 PM 24.8 °F 12.9 °F 19.4 °F 80% 30.08 in 10.0 mi NNE 13.8 mph 19.6 mph N/A   Clear
11:55 PM 23.0 °F 10.6 °F 19.4 °F 86% 30.08 in 10.0 mi North 13.8 mph - N/A   Clear